Location: Newark
(42.9500°N, 17.1167°E)
Time: 08:52:45
(UTC+00:00)

N. Korean satellite - Visible Passes

Search period start: 18 September 2020 00:00
Search period end: 28 September 2020 00:00
Orbit: 455 x 503 km, 97.2° (Epoch: 17 September)

Date Brightness Start Highest point End Pass type
(mag) Time Alt. Az. Time Alt. Az. Time Alt. Az.
18 Sep 9.4 03:43:15 10° NE 03:46:12 22° E 03:49:08 10° SSE visible
19 Sep 10.2 03:18:50 10° ENE 03:20:00 11° E 03:21:08 10° ESE visible
21 Sep 8.6 03:58:14 10° NNE 04:01:37 34° E 04:04:56 10° SSE visible
22 Sep 9.8 03:33:00 10° NE 03:35:27 17° E 03:37:53 10° SE visible
25 Sep 9.2 03:47:47 10° NE 03:50:52 25° E 03:53:53 10° SSE visible
26 Sep 10.0 03:23:00 10° ENE 03:24:39 13° E 03:26:16 10° ESE visible
